Weather Service Report


271 
ASUS43 KIND 261009
RWRIN 

WEATHER ROUNDUP FOR INDIANA
NATIONAL WEATHER SERVICE INDIANAPOLIS IN
600 AM EDT MON JUN 26 2017

NOTE: "FAIR" INDICATES FEW OR NO CLOUDS BELOW 12,000 FEET WITH NO
SIGNIFICANT WEATHER AND/OR OBSTRUCTIONS TO VISIBILITY.

* - STATION DOES NOT REPORT WEATHER SUCH AS PRECIPITATION OR FOG.

+ - STATION NOT QUALITY CONTROLLED BY THE NATIONAL WEATHER SERVICE.
    USE DATA WITH CAUTION...ESPECIALLY DEWPOINT AND RELATIVE
    HUMIDITY OBSERVATIONS.

INZ001>003-010>013-019-020-261100-
NORTHWEST INDIANA
  
CITY           SKY/WX    TMP DP  RH WIND       PRES   REMARKS
GARY /AIRPORT/ PTCLDY    55  50  82 W7        30.11S                  
KNOX *+        CLEAR     50  43  76 SW6       30.11R                  
LA PORTE +     CLEAR     52  49  87 W6        30.11R                  
MICHIGAN CITY+ CLEAR     52  50  93 S3        30.10S                  
MONTICELLO +   CLEAR     54  49  85 CALM      30.12S                  
VALPARAISO     CLEAR     53  49  86 W7        30.11S                  

$$

LMZ046-743>745-261100-
SOUTHERN LAKE MICHIGAN
  
STATION/POSITION TIME  TEMP    WIND        PRES    WAVE
                       AIR SEA DIR/SP/G            HT
                 (UTC) (F)     (DEG/KT/KT) (MB)    (FT)
BURNS HARBOR     0940   59     220/  7/  8 1019.6S
MICHIGAN CITY    0940   62     250/ 13/ 15   N/A
5NW MICH CITY    1000   62 66  260/ 12/ 16   N/A     3

$$

INZ004-005-014>016-021>024-261100-
NORTH CENTRAL INDIANA
  
CITY           SKY/WX    TMP DP  RH WIND       PRES   REMARKS
GOSHEN         PTCLDY    53  48  83 W6        30.08S                  
LOGANSPORT +   CLEAR     50  46  87 SW5       30.13S                  
PERU/GRISSOM   CLEAR     53  51  93 W6        30.11S                  
ROCHESTER +    CLEAR     54  50  87 SW6       30.12R                  
SOUTH BEND     CLEAR     53  51  93 W7        30.10R                  
WARSAW +       PTCLDY    52  48  87 W7        30.10R                  

$$

INZ006>009-017-018-025>027-261100-
NORTHEAST INDIANA
  
CITY           SKY/WX    TMP DP  RH WIND       PRES   REMARKS
AUBURN +       CLEAR     55  48  76 SW3       30.09R                  
FORT WAYNE     PTCLDY    56  49  77 W10       30.11R                  
HUNTINGTON +   CLEAR     52  49  90 W5        30.11R                  
KENDALLVILLE + CLEAR     52  50  93 W5        30.09R                  

$$

INZ028-029-035-036-043>045-051>053-261100-
WEST CENTRAL INDIANA
  
CITY           SKY/WX    TMP DP  RH WIND       PRES   REMARKS
CRAWFORDSVL +  PTCLDY    50  50 100 CALM      30.16R                  
GREENCASTLE +  PTCLDY    50  50 100 CALM      30.17R                  
LAFAYETTE      CLEAR     50  50 100 CALM      30.14R                  
TERRE HAUTE    CLEAR     53  49  86 CALM      30.17S                  

$$

INZ030>032-037>040-046>048-054>057-064-065-261100-
CENTRAL INDIANA
  
CITY           SKY/WX    TMP DP  RH WIND       PRES   REMARKS
CP ATTERBURY + PTCLDY    50  46  87 CALM      30.17R                  
FRANKFORT +    PTCLDY    53  50  90 W5        30.16R                  
GREENWOOD *+   PTCLDY   N/A N/A N/A W3        30.16S                  
INDIANAPOLIS   PTCLDY    54  49  83 W7        30.15S                  
-EAGLE CREEK   PTCLDY    56  48  74 VRB3      30.15R                  
KOKOMO +       CLEAR     54  50  86 W7        30.13S                  
MARION +       PTCLDY    52  48  87 W6        30.13S                  
MT COMFORT *+  CLEAR     52  48  87 W6        30.15R                  
SHELBYVILLE    CLEAR     55  49  80 W6        30.14S                  
ZIONSVILLE +   CLEAR     52  49  89 W5        30.15S                  

$$

INZ033-034-041-042-049-050-058-059-261100-
EAST CENTRAL INDIANA
  
CITY           SKY/WX    TMP DP  RH WIND       PRES   REMARKS
MUNCIE         CLEAR     56  49  77 SW6       30.13R                  
RICHMOND +     CLEAR     50  46  87 W5        30.15R                  

$$

INZ060-061-067>069-081>083-085>088-261100-
SOUTHWEST INDIANA
  
CITY           SKY/WX    TMP DP  RH WIND       PRES   REMARKS
EVANSVILLE     CLEAR     54  51  90 CALM      30.19R                  
HUNTINGBURG *+ CLEAR     54  52  93 S3        30.18R                  
WASHINGTON +   CLEAR     52  50  93 CALM      30.18R                  

$$

INZ062-063-066-070>080-084-089>092-261100-
SOUTH CENTRAL AND SOUTHEAST INDIANA
  
CITY           SKY/WX    TMP DP  RH WIND       PRES   REMARKS
BEDFORD +      CLEAR     50  48  93 CALM      30.17R                  
BLOOMINGTON    PTCLDY    51  47  86 CALM      30.17R                  
MADISON *+     CLEAR     54  52  94 CALM      30.18S                  
NORTH VERNON + CLEAR     52  50  93 CALM      30.17R                  
SEYMOUR +      CLEAR    N/A N/A N/A CALM      30.16R                  

$$

  

Return to Home page


Western Regional Climate Center, wrcc@dri.edu